Location: Copeville
(33.0796°N, 96.4155°W)
Time: 06:54:48
(UTC+00:00)

JUGNU - Pass Details

Date: 21 April 2024
Orbit: 835 x 862 km, 20.0° (Epoch: 19 May)

Event Time Altitude Azimuth Distance (km) Brightness Sun altitude
Rises 01:28:15 0° 243° (WSW) 3,366 ? -6.4°
Reaches altitude 10° 01:31:20 10° 228° (SW) 2,436 ? -7.1°
Maximum altitude 01:35:43 22° 179° (S) 1,747 ? -7.9°
Drops below altitude 10° 01:40:08 10° 130° (SE) 2,449 ? -8.8°
Enters shadow 01:40:23 - 129° (SE) 2,518 ? -8.8°
